This demonstration page uses our WeatherBlox Daily Observations layout. Learn more.

Left ArrowRight Arrow

40.92945, -100.16068

Hourly Observations for October 12, 2021

Temp ( °F °C ) Dew Point ( °F °C ) Humidity (%) Winds ( mph kmh ) Pressure ( in mb ) Visibility ( mi km ) Precip ( " mm )
12:15 am 00:15 Clear 47 8.1 39 3.7 74 74 ESE 3 6 29.91 1013 10 16 N/A
12:35 am 00:35 Clear 45 7.3 38 3.3 76 76 E 5 7 29.92 1013 10 16 N/A
12:55 am 00:55 Clear 45 7.4 39 3.9 79 79 ENE 7 11 29.91 1013 10 16 N/A
1:15 am 01:15 Clear 47 8.4 38 3.2 70 70 E 3 6 29.91 1013 10 16 N/A
1:35 am 01:35 Clear 44 6.8 37 3 77 77 ENE 5 7 29.92 1013 10 16 N/A
1:55 am 01:55 Clear 45 7.3 38 3.2 75 75 ENE 3 6 29.92 1013 10 16 N/A
2:15 am 02:15 Clear 46 7.6 37 2.6 71 71 E 3 6 29.92 1013 10 16 N/A
2:35 am 02:35 Clear 44 6.9 37 2.5 74 74 E 5 7 29.93 1014 10 16 N/A
2:55 am 02:55 Clear 45 7.1 37 3 75 75 E 7 11 29.93 1013 10 16 N/A
3:15 am 03:15 Clear 45 7.1 38 3.2 76 76 E 6 9 29.93 1013 10 16 N/A
3:35 am 03:35 Clear 46 7.7 37 2.8 71 71 N N/A 29.92 1013 10 16 N/A
3:55 am 03:55 Clear 46 8 37 2.6 69 69 E 5 7 29.92 1013 10 16 N/A
4:15 am 04:15 Clear 46 7.5 37 2.7 72 72 E 7 11 29.92 1013 10 16 N/A
4:35 am 04:35 Clear 47 8.6 37 3 68 68 E 6 9 29.91 1013 10 16 N/A
4:55 am 04:55 Clear 46 7.8 38 3.2 73 73 E 5 7 29.92 1013 10 16 N/A
5:15 am 05:15 Clear 45 7 37 3 76 76 E 8 13 29.93 1014 10 16 N/A
5:35 am 05:35 Clear 45 7 37 3 76 76 E 5 7 29.94 1014 10 16 N/A
5:55 am 05:55 Clear 46 7.6 37 2.7 71 71 N N/A 29.93 1014 10 16 N/A
6:15 am 06:15 Clear 45 7 37 2.6 74 74 E 5 7 29.94 1014 10 16 N/A
6:35 am 06:35 Clear 43 6.1 37 2.7 79 79 E 5 7 29.94 1014 10 16 N/A
6:55 am 06:55 Clear 44 6.5 37 2.6 76 76 E 6 9 29.94 1014 10 16 N/A
7:15 am 07:15 Clear 43 6.3 38 3.2 81 81 E 7 11 29.94 1014 10 16 N/A
7:35 am 07:35 Clear 44 6.8 39 3.9 82 82 E 7 11 29.93 1014 10 16 N/A
7:55 am 07:55 Sunny 46 7.8 40 4.2 78 78 E 8 13 29.92 1013 10 16 N/A
8:15 am 08:15 Sunny 47 8.6 40 4.7 77 77 E 7 11 29.92 1013 10 16 N/A
8:35 am 08:35 Sunny 48 8.9 41 5 77 77 E 7 11 29.92 1013 10 16 N/A
8:55 am 08:55 Sunny 50 10.1 42 5.4 73 73 E 12 19 29.90 1013 10 16 N/A
9:15 am 09:15 Sunny 52 11.3 42 5.7 69 69 ESE 10 17 29.90 1013 10 16 N/A
9:35 am 09:35 Sunny 53 11.8 43 6.1 68 68 ESE 10 17 29.88 1012 10 16 N/A
9:55 am 09:55 Sunny 55 13 44 6.7 66 66 ESE 12 19 29.87 1012 10 16 N/A
10:15 am 10:15 Sunny 58 14.2 45 7.4 64 64 ESE 10 17 29.86 1011 10 16 N/A
10:35 am 10:35 Sunny 60 15.3 46 7.8 61 61 ESE 14 22 29.85 1011 10 16 N/A
10:55 am 10:55 Sunny 62 16.4 46 8 58 58 SE 15 24 29.82 1010 10 16 N/A
11:15 am 11:15 Sunny 64 17.5 46 7.9 54 54 SE 17 28 29.79 1009 10 16 N/A
11:35 am 11:35 Sunny 66 18.9 47 8.1 50 50 SE 18 30 29.77 1008 10 16 N/A
11:55 am 11:55 Sunny 68 19.9 46 7.8 46 46 SE 21 33 29.75 1008 10 16 N/A
12:15 pm 12:15 Sunny 70 20.9 47 8.2 44 44 SE 17 28 29.73 1007 10 16 N/A
12:55 pm 12:55 Partly Cloudy 72 22.3 45 7 37 37 SE 21 33 29.70 1006 10 16 N/A
1:15 pm 13:15 Mostly Cloudy 70 21 44 6.7 40 40 SE 26 43 29.70 1006 10 16 N/A
1:35 pm 13:35 Cloudy 69 20.6 44 6.8 41 41 SE 23 37 29.70 1006 10 16 N/A
1:55 pm 13:55 Cloudy 68 20.2 44 6.6 41 41 SE 26 43 29.69 1005 10 16 N/A
2:15 pm 14:15 Cloudy 69 20.5 44 6.5 40 40 SE 28 44 29.67 1005 10 16 N/A
2:35 pm 14:35 Cloudy 69 20.4 44 6.5 41 41 SSE 26 43 29.66 1004 10 16 N/A
2:55 pm 14:55 Cloudy 70 21 44 6.7 40 40 SSE 25 41 29.65 1004 10 16 N/A
3:15 pm 15:15 Cloudy 71 21.6 43 6.3 37 37 SE 23 37 29.64 1004 10 16 N/A
3:35 pm 15:35 Cloudy 71 21.6 41 5 34 34 SE 30 48 29.63 1003 10 16 N/A
3:55 pm 15:55 Cloudy 69 20.7 41 5 36 36 SE 28 44 29.64 1004 10 16 N/A
4:15 pm 16:15 Cloudy 69 20.4 42 5.7 38 38 SSE 21 33 29.64 1004 10 16 N/A
4:35 pm 16:35 Cloudy 68 20 43 6.1 40 40 SE 20 31 29.63 1003 10 16 N/A
4:55 pm 16:55 Cloudy 67 19.4 42 5.3 40 40 SSE 25 41 29.64 1004 10 16 N/A
5:15 pm 17:15 Cloudy 66 18.9 43 6.1 43 43 SSE 23 37 29.64 1004 10 16 N/A
5:35 pm 17:35 Cloudy 66 19 43 6 43 43 SSE 24 39 29.63 1003 10 16 N/A
5:55 pm 17:55 Cloudy 65 18.3 44 6.8 47 47 SE 17 28 29.64 1004 10 16 N/A
6:15 pm 18:15 Cloudy 65 18.6 44 6.8 46 46 SE 23 37 29.63 1004 10 16 N/A
6:35 pm 18:35 Cloudy 65 18.5 45 7.2 48 48 SE 24 39 29.64 1004 10 16 N/A
6:55 pm 18:55 Cloudy 65 18.4 44 6.9 47 47 SSE 24 39 29.64 1004 10 16 N/A
7:15 pm 19:15 Cloudy 64 18 45 7.1 49 49 SSE 23 37 29.63 1003 10 16 N/A
7:35 pm 19:35 Cloudy 64 17.6 46 7.7 52 52 SE 22 35 29.60 1002 10 16 N/A
7:55 pm 19:55 Cloudy 63 17.4 46 8 54 54 SE 29 46 29.56 1001 10 16 N/A
8:15 pm 20:15 Cloudy 62 16.8 46 7.6 55 55 ESE 29 46 29.53 1000 10 16 N/A
8:35 pm 20:35 Cloudy with Nearby Thunderstorms 62 16.7 46 7.7 56 56 SE 24 39 29.56 1001 10 16 N/A
8:55 pm 20:55 Cloudy 62 16.6 46 8 57 57 SE 24 39 29.59 1002 10 16 N/A
9:15 pm 21:15 Cloudy 62 16.5 47 8.5 59 59 SSE 24 39 29.58 1002 10 16 N/A
9:35 pm 21:35 Cloudy 62 16.4 47 8.5 60 60 SE 20 31 29.56 1001 10 16 N/A
9:55 pm 21:55 Cloudy 61 16.3 47 8.5 60 60 SE 26 43 29.57 1001 10 16 N/A
10:15 pm 22:15 Cloudy 61 16 48 8.7 62 62 SE 18 30 29.56 1001 10 16 N/A
10:35 pm 22:35 Cloudy 61 16.1 48 9 63 63 SE 13 20 29.55 1001 10 16 N/A
10:55 pm 22:55 Cloudy 60 15.4 50 9.9 70 70 SE 21 33 29.59 1002 7 11 0.01 0.25
11:15 pm 23:15 Cloudy with Nearby Thunderstorms 57 14.1 53 11.4 84 84 S 10 17 29.61 1003 7 11 0.03 0.76
11:35 pm 23:35 Cloudy 55 13 54 12.3 96 96 E 6 9 29.58 1002 3 5 0.28 7.11
11:55 pm 23:55 Cloudy with Light Rain 55 13 55 12.5 97 97 E 10 17 29.55 1001 10 16 0.31 7.87

Powered by AerisWeather